Time,TemperatureF,DewpointF,PressureIn,WindDirection,WindDirectionDegrees,WindSpeedMPH,WindSpeedGustMPH,Humidity,HourlyPrecipIn,Conditions,Clouds,dailyrainin,SoftwareType,DateUTC
2013-04-28 00:03:00,35.0,-99.9,30.32,SSW,202,4.0,6.0,95,-99.99,,,0.00,,2013-04-28 04:03:00,
2013-04-28 01:42:00,31.0,31.0,30.34,SSW,202,5.0,7.0,100,-99.99,,,0.00,,2013-04-28 05:42:00,
2013-04-28 01:52:00,31.0,31.0,30.34,SSW,202,5.0,7.0,100,-99.99,,,0.00,,2013-04-28 05:52:00,
2013-04-28 02:01:00,31.0,31.0,30.34,SSW,202,5.0,7.0,100,-99.99,,,0.00,,2013-04-28 06:01:00,
2013-04-28 02:42:00,30.0,30.0,30.34,SSW,202,0.0,7.0,100,-99.99,,,-99.99,,2013-04-28 06:42:00,
2013-04-28 02:52:00,30.0,30.0,30.34,SSW,202,0.0,7.0,100,-99.99,,,-99.99,,2013-04-28 06:52:00,
2013-04-28 03:02:00,30.0,30.0,30.34,SSW,202,0.0,7.0,100,-99.99,,,-99.99,,2013-04-28 07:02:00,
2013-04-28 03:42:00,28.0,28.0,30.34,SSW,202,0.0,5.0,100,-99.99,,,0.00,,2013-04-28 07:42:00,
2013-04-28 03:52:00,28.0,28.0,30.34,SSW,202,0.0,5.0,100,-99.99,,,0.00,,2013-04-28 07:52:00,
2013-04-28 04:02:00,28.0,28.0,30.34,SSW,202,0.0,5.0,100,-99.99,,,0.00,,2013-04-28 08:02:00,
2013-04-28 04:42:00,27.0,27.0,30.34,SSW,202,0.0,3.0,100,-99.99,,,0.00,,2013-04-28 08:42:00,
2013-04-28 04:52:00,27.0,27.0,30.34,SSW,202,0.0,3.0,100,-99.99,,,0.00,,2013-04-28 08:52:00,
2013-04-28 05:01:00,27.0,27.0,30.34,SSW,202,0.0,3.0,100,-99.99,,,0.00,,2013-04-28 09:01:00,
2013-04-28 05:42:00,27.0,27.0,30.35,SSW,202,3.0,4.0,100,-99.99,,,0.00,,2013-04-28 09:42:00,
2013-04-28 05:53:00,27.0,27.0,30.35,SSW,202,3.0,4.0,100,-99.99,,,0.00,,2013-04-28 09:53:00,
2013-04-28 06:03:00,27.0,27.0,30.35,SSW,202,3.0,4.0,100,-99.99,,,0.00,,2013-04-28 10:03:00,
2013-04-28 06:42:00,27.0,27.0,30.36,SSW,202,0.0,4.0,100,-99.99,,,0.00,,2013-04-28 10:42:00,
2013-04-28 06:53:00,27.0,27.0,30.36,SSW,202,0.0,4.0,100,-99.99,,,0.00,,2013-04-28 10:53:00,
2013-04-28 07:02:00,27.0,27.0,30.36,SSW,202,0.0,4.0,100,-99.99,,,0.00,,2013-04-28 11:02:00,
2013-04-28 07:42:00,32.0,32.0,30.37,NW,315,4.0,7.0,100,-99.99,,,0.00,,2013-04-28 11:42:00,
2013-04-28 07:52:00,32.0,32.0,30.37,NW,315,4.0,7.0,100,-99.99,,,0.00,,2013-04-28 11:52:00,
2013-04-28 08:02:00,32.0,32.0,30.37,NW,315,4.0,7.0,100,-99.99,,,0.00,,2013-04-28 12:02:00,
2013-04-28 08:42:00,37.0,33.0,30.39,NW,315,4.0,9.0,84,-99.99,,,0.00,,2013-04-28 12:42:00,
2013-04-28 08:52:00,37.0,33.0,30.39,NW,315,4.0,9.0,84,-99.99,,,0.00,,2013-04-28 12:52:00,
2013-04-28 09:02:00,37.0,33.0,30.39,NW,315,4.0,9.0,84,-99.99,,,0.00,,2013-04-28 13:02:00,
2013-04-28 09:42:00,46.0,32.0,30.37,East,90,3.0,7.0,58,-99.99,,,0.00,,2013-04-28 13:42:00,
2013-04-28 09:52:00,46.0,32.0,30.37,East,90,3.0,7.0,58,-99.99,,,0.00,,2013-04-28 13:52:00,
2013-04-28 10:02:00,46.0,32.0,30.37,East,90,3.0,7.0,58,-99.99,,,0.00,,2013-04-28 14:02:00,
2013-04-28 10:42:00,51.0,24.0,30.37,ENE,67,4.0,8.0,35,-99.99,,,0.00,,2013-04-28 14:42:00,
2013-04-28 10:52:00,51.0,24.0,30.37,ENE,67,4.0,8.0,35,-99.99,,,0.00,,2013-04-28 14:52:00,
2013-04-28 11:02:00,51.0,24.0,30.37,ENE,67,4.0,8.0,35,-99.99,,,0.00,,2013-04-28 15:02:00,
2013-04-28 11:43:00,57.0,27.0,30.35,NE,45,4.0,8.0,31,-99.99,,,0.00,,2013-04-28 15:43:00,
2013-04-28 11:53:00,57.0,27.0,30.35,NE,45,4.0,8.0,31,-99.99,,,0.00,,2013-04-28 15:53:00,
2013-04-28 12:03:00,57.0,27.0,30.35,NE,45,4.0,8.0,31,-99.99,,,0.00,,2013-04-28 16:03:00,
2013-04-28 12:43:00,61.0,24.0,30.34,NE,45,6.0,19.0,24,-99.99,,,0.00,,2013-04-28 16:43:00,
2013-04-28 12:52:00,61.0,24.0,30.34,NE,45,6.0,19.0,24,-99.99,,,0.00,,2013-04-28 16:52:00,
2013-04-28 13:02:00,61.0,24.0,30.34,NE,45,6.0,19.0,24,-99.99,,,0.00,,2013-04-28 17:02:00,
2013-04-28 13:43:00,63.0,25.0,30.32,East,90,6.0,21.0,23,-99.99,,,0.00,,2013-04-28 17:43:00,
2013-04-28 13:52:00,63.0,25.0,30.32,East,90,6.0,21.0,23,-99.99,,,0.00,,2013-04-28 17:52:00,
2013-04-28 14:02:00,63.0,25.0,30.32,East,90,6.0,21.0,23,-99.99,,,0.00,,2013-04-28 18:02:00,
2013-04-28 14:42:00,64.0,26.0,30.29,West,270,5.0,32.0,24,-99.99,,,0.00,,2013-04-28 18:42:00,
2013-04-28 14:52:00,64.0,26.0,30.29,West,270,5.0,32.0,24,-99.99,,,0.00,,2013-04-28 18:52:00,
2013-04-28 15:02:00,64.0,26.0,30.29,West,270,5.0,32.0,24,-99.99,,,0.00,,2013-04-28 19:02:00,
2013-04-28 15:42:00,64.0,28.0,30.26,ENE,67,7.0,11.0,26,-99.99,,,0.00,,2013-04-28 19:42:00,
2013-04-28 15:52:00,64.0,28.0,30.26,ENE,67,7.0,11.0,26,-99.99,,,0.00,,2013-04-28 19:52:00,
2013-04-28 16:02:00,64.0,28.0,30.26,ENE,67,7.0,11.0,26,-99.99,,,0.00,,2013-04-28 20:02:00,
2013-04-28 16:42:00,63.0,27.0,30.23,NE,45,4.0,20.0,25,-99.99,,,0.00,,2013-04-28 20:42:00,
2013-04-28 16:52:00,63.0,27.0,30.23,NE,45,4.0,20.0,25,-99.99,,,0.00,,2013-04-28 20:52:00,
2013-04-28 17:01:00,63.0,27.0,30.23,NE,45,4.0,20.0,25,-99.99,,,0.00,,2013-04-28 21:01:00,
2013-04-28 17:43:00,66.0,28.0,30.22,East,90,3.0,15.0,24,-99.99,,,0.00,,2013-04-28 21:43:00,
2013-04-28 17:53:00,66.0,28.0,30.22,East,90,3.0,15.0,24,-99.99,,,0.00,,2013-04-28 21:53:00,
2013-04-28 18:03:00,66.0,28.0,30.22,East,90,3.0,15.0,24,-99.99,,,0.00,,2013-04-28 22:03:00,
2013-04-28 18:42:00,65.0,28.0,30.21,ENE,67,7.0,10.0,25,-99.99,,,0.00,,2013-04-28 22:42:00,
2013-04-28 18:52:00,65.0,28.0,30.21,ENE,67,7.0,10.0,25,-99.99,,,0.00,,2013-04-28 22:52:00,
2013-04-28 19:02:00,65.0,28.0,30.21,ENE,67,7.0,10.0,25,-99.99,,,0.00,,2013-04-28 23:02:00,
2013-04-28 19:42:00,61.0,29.0,30.21,ENE,67,3.0,12.0,29,-99.99,,,0.00,,2013-04-28 23:42:00,
2013-04-28 19:52:00,61.0,29.0,30.21,ENE,67,3.0,12.0,29,-99.99,,,0.00,,2013-04-28 23:52:00,
2013-04-28 20:01:00,61.0,29.0,30.21,ENE,67,3.0,12.0,29,-99.99,,,0.00,,2013-04-29 00:01:00,
2013-04-28 21:42:00,48.0,34.0,30.23,East,90,4.0,5.0,57,-99.99,,,0.00,,2013-04-29 01:42:00,
2013-04-28 21:52:00,48.0,34.0,30.23,East,90,4.0,5.0,57,-99.99,,,0.00,,2013-04-29 01:52:00,
2013-04-28 22:02:00,48.0,34.0,30.23,East,90,4.0,5.0,57,-99.99,,,0.00,,2013-04-29 02:02:00,
2013-04-28 22:42:00,43.0,37.0,30.23,East,90,2.0,6.0,78,-99.99,,,0.00,,2013-04-29 02:42:00,
2013-04-28 22:52:00,43.0,37.0,30.23,East,90,2.0,6.0,78,-99.99,,,0.00,,2013-04-29 02:52:00,
2013-04-28 23:01:00,43.0,37.0,30.23,East,90,2.0,6.0,78,-99.99,,,0.00,,2013-04-29 03:01:00,
2013-04-28 23:43:00,42.0,38.0,30.25,SE,135,6.0,11.0,84,-99.99,,,0.00,,2013-04-29 03:43:00,
2013-04-28 23:53:00,42.0,38.0,30.25,SE,135,6.0,11.0,84,-99.99,,,0.00,,2013-04-29 03:53:00,